[[{"header":{"parameterUnit":"m.s-1","parameterCategory":1,"la1":30.2992,"la2":30.254,"lo1":-89.0895,"lo2":-89.0443,"dy":0.0025,"dx":0.0025,"nx":19,"ny":19,"refTime":"2026-05-18T03:00:00:Z","depth":0,"parameterNumber":2,"parameterNumberName":"U-component_of_WINDS"},"data":[0,0,0,-1.7698,-1.7699,-1.7724,-1.7724,-1.7768,-1.7768,0,0,0,0,0,0,0,0,0,0,0,-1.7696,-1.7696,-1.7698,-1.7699,-1.7724,-1.7724,-1.7768,-1.7768,0,0,0,0,0,0,0,0,0,0,0,-1.7696,-1.7696,-1.7697,-1.7699,-1.7724,-1.7724,-1.7767,-1.7745,0,0,0,0,0,0,0,0,0,0,-1.7718,-1.7721,-1.7696,-1.7697,-1.7699,-1.7724,-1.7724,-1.7743,-1.7746,-1.7761,0,-1.7774,0,-1.7772,-1.7772,-1.7772,0,0,0,-1.7695,-1.7719,-1.7721,-1.7697,-1.7699,-1.7724,-1.7712,-1.7745,-1.7748,-1.7764,-1.7774,-1.7776,-1.7772,-1.7772,-1.7772,-1.7866,-1.7867,0,0,-1.7694,-1.7704,-1.7719,-1.7723,-1.7719,-1.7711,-1.7712,-1.7746,-1.7758,-1.7774,-1.7776,-1.7773,-1.7772,-1.7773,-1.7866,-1.7866,0,0,0,-1.7692,-1.7703,-1.7704,-1.7722,-1.7725,-1.7712,-1.7714,-1.7757,-1.7756,-1.7777,-1.7774,-1.7773,-1.7773,-1.7865,-1.7866,-1.7905,0,0,0,-1.7691,-1.7702,-1.7703,-1.771,-1.7725,-1.7741,-1.7723,-1.7754,-1.7757,-1.7773,-1.7773,-1.7774,-1.7864,-1.7865,-1.7903,-1.7922,0,0,0,-1.7693,-1.7702,-1.7707,-1.771,-1.7721,-1.774,-1.7742,-1.7754,-1.7756,-1.7772,-1.7774,-1.7864,-1.7865,-1.79,-1.7918,-1.7949,0,0,0,-1.7697,-1.7742,-1.7708,-1.7758,-1.7721,-1.7765,-1.7741,-1.7773,-1.7792,-1.7773,-1.7864,-1.7866,-1.7899,-1.7916,-1.7947,-1.7976,-1.799,0,0,-1.7759,-1.775,-1.7778,-1.7749,-1.78,-1.776,-1.7818,-1.7826,-1.7819,-1.7851,-1.7853,-1.7903,-1.7918,-1.7949,-1.8064,-1.8074,0,0,0,-1.7801,-1.7822,-1.7833,-1.7851,-1.7858,-1.7866,-1.7865,-1.7868,-1.7895,-1.7837,-1.7923,-1.7932,-1.7949,-1.7963,-1.7972,-1.7987,-1.7873,-1.7873,-1.7872,-1.7902,-1.7891,-1.7938,-1.793,-1.7948,-1.7947,-1.7961,-1.7965,-1.7948,-1.7969,-1.7978,-1.8049,-1.8066,-1.8072,-1.8088,-1.7994,-1.7994,-1.7994,-1.7994,-1.7992,-1.8019,-1.7997,-1.8034,-1.8023,-1.8055,-1.8056,-1.8044,-1.8072,-1.8041,-1.8056,-1.8022,-1.8085,-1.8098,-1.7997,-1.7997,-1.7996,-1.7996,-1.7996,-1.8056,-1.8067,-1.807,-1.8096,-1.8118,-1.811,-1.8138,-1.8128,-1.8118,-1.8133,-1.8141,-1.8141,-1.8138,-1.8138,-1.8138,-1.8138,-1.8139,-1.8139,-1.8139,-1.812,-1.8123,-1.8148,-1.8161,-1.8172,-1.8185,-1.8186,-1.8197,-1.8206,-1.8196,-1.8196,-1.8178,-1.8093,-1.8071,-1.8143,-1.8142,-1.8142,-1.8141,-1.8141,-1.8213,-1.8191,-1.8229,-1.824,-1.8255,-1.8278,-1.8265,-1.8288,-1.8296,-1.8311,-1.8291,-1.823,-1.8219,-1.8212,-1.8194,-1.8293,-1.8293,-1.8293,-1.8293,-1.8266,-1.8261,-1.8298,-1.8316,-1.8334,-1.8326,-1.8371,-1.8374,-1.8372,-1.8377,-1.8362,-1.8337,-1.833,-1.8324,-1.8314,-1.8297,-1.842,-1.842,-1.842,-1.8323,-1.8319,-1.8358,-1.8356,-1.8368,-1.8379,-1.8421,-1.8445,-1.8439,-1.8425,-1.838,-1.8375,-1.8336,-1.8323,-1.8306,-1.8291,-1.826,0,0]},{"header":{"parameterUnit":"m.s-1","parameterCategory":1,"la1":30.2992,"la2":30.254,"lo1":-89.0895,"lo2":-89.0443,"dy":0.0025,"dx":0.0025,"nx":19,"ny":19,"refTime":"2026-05-18T03:00:00:Z","depth":0,"parameterNumber":3,"parameterNumberName":"V-component_of_WINDS"},"data":[0,0,0,1.7964,1.7965,1.8008,1.8008,1.8046,1.8046,0,0,0,0,0,0,0,0,0,0,0,1.7941,1.7941,1.7964,1.7965,1.8008,1.8008,1.8046,1.8046,0,0,0,0,0,0,0,0,0,0,0,1.7941,1.7941,1.7941,1.7965,1.8008,1.8008,1.8046,1.802,0,0,0,0,0,0,0,0,0,0,1.798,1.795,1.7941,1.7941,1.7965,1.8008,1.8008,1.8019,1.8021,1.8019,0,1.8016,0,1.8032,1.8048,1.8048,0,0,0,1.7972,1.7947,1.7968,1.7941,1.7965,1.8008,1.799,1.802,1.8023,1.8023,1.8016,1.8018,1.8032,1.8048,1.8048,1.8016,1.8015,0,0,1.797,1.7943,1.7966,1.797,1.7962,1.7989,1.7992,1.8022,1.8013,1.8017,1.8019,1.8033,1.8048,1.8048,1.8016,1.8015,0,0,0,1.7958,1.7941,1.7962,1.7968,1.7977,1.799,1.7993,1.8012,1.8021,1.802,1.8033,1.8048,1.8049,1.8017,1.8016,1.7966,0,0,0,1.7957,1.7935,1.796,1.7945,1.7976,1.7995,1.7982,1.8019,1.8023,1.8033,1.8048,1.8049,1.8017,1.8016,1.7968,1.7946,0,0,0,1.7942,1.7933,1.7936,1.7943,1.7961,1.7995,1.8006,1.802,1.8031,1.8048,1.8049,1.8018,1.8016,1.7971,1.795,1.793,0,0,0,1.7918,1.789,1.7935,1.7909,1.796,1.7964,1.8006,1.801,1.8019,1.8048,1.8017,1.8016,1.7972,1.7953,1.7932,1.7908,1.7895,0,0,1.7868,1.7883,1.7871,1.7912,1.7901,1.796,1.7942,1.7974,1.8,1.8009,1.8008,1.7968,1.795,1.793,1.7836,1.7825,0,0,0,1.7846,1.7836,1.7839,1.7847,1.7872,1.7891,1.793,1.7942,1.7951,1.7999,1.7956,1.7947,1.7936,1.7925,1.7917,1.7909,1.801,1.801,1.801,1.7737,1.7772,1.7753,1.7793,1.78,1.7841,1.785,1.7873,1.7906,1.7895,1.7897,1.7836,1.7822,1.7816,1.7808,1.7888,1.7888,1.7888,1.7888,1.7667,1.7659,1.7704,1.7702,1.7739,1.7737,1.7776,1.7799,1.7803,1.7837,1.7829,1.7862,1.7804,1.7798,1.7884,1.7885,1.7885,1.7885,1.7886,1.76,1.7602,1.7618,1.7633,1.7641,1.7683,1.7685,1.7718,1.775,1.7743,1.7749,1.775,1.7754,1.7743,1.7743,1.7743,1.7743,1.7743,1.7743,1.7522,1.7542,1.754,1.7565,1.7575,1.7592,1.7633,1.7643,1.7664,1.7688,1.7688,1.7721,1.7792,1.7809,1.7739,1.774,1.774,1.7741,1.7741,1.7437,1.7462,1.7458,1.7468,1.75,1.7506,1.755,1.7568,1.7582,1.7582,1.7617,1.7664,1.7682,1.7689,1.7703,1.761,1.761,1.761,1.761,1.7379,1.7392,1.7396,1.7409,1.7427,1.7466,1.746,1.7492,1.7529,1.754,1.7559,1.758,1.7586,1.76,1.7609,1.7623,1.7512,1.7512,1.7512,1.7329,1.7345,1.7333,1.737,1.7399,1.7422,1.7418,1.7431,1.7479,1.7508,1.7549,1.7553,1.7589,1.7598,1.7627,1.7641,1.7666,0,0]}]]